Location: Clermont
(50.2608°N, 4.3172°E)
Time: 08:23:08
(UTC+00:00)

MOS 1-B Rocket - Pass Details

Date: 13 August 2020
Orbit: 890 x 1606 km, 99.1° (Epoch: 26 September)

Event Time Altitude Azimuth Distance (km) Brightness Sun altitude
Rises 22:19:37 0° 16° (NNE) 3,568 7.7 -22.6°
Reaches altitude 10° 22:22:04 10° 18° (NNE) 2,590 6.9 -22.8°
Maximum altitude 22:27:43 77° 104° (ESE) 920 3.7 -23.1°
Enters shadow 22:29:13 50° 178° (S) 1,127 3.9 -23.2°
